| time (UTC) | temp C | wind direction | speed KPH | gust KPH | rain 1hr cm | rain 24hr cm | rain mn cm | humidity % | barometer mb |
| 20260510180035 | 12 | 9 | 0.0 | 4.8 | 0.00 | 0.00 | 0.00 | 67 | 1009.3 |
| 20260510174532 | 12 | 338 | 1.6 | 9.7 | 0.00 | 0.00 | 0.00 | 65 | 1009.4 |
| 20260510173029 | 12 | 341 | 1.6 | 6.4 | 0.00 | 0.00 | 0.00 | 64 | 1009.6 |
| 20260510171537 | 13 | 5 | 3.2 | 9.7 | 0.00 | 0.00 | 0.00 | 64 | 1009.8 |
| 20260510170026 | 13 | 19 | 3.2 | 11.3 | 0.00 | 0.00 | 0.00 | 62 | 1009.9 |
| 20260510164524 | 13 | 37 | 3.2 | 9.7 | 0.00 | 0.00 | 0.00 | 60 | 1009.9 |
| 20260510163023 | 13 | 12 | 3.2 | 11.3 | 0.00 | 0.00 | 0.00 | 59 | 1010.1 |
| 20260510161522 | 13 | 57 | 3.2 | 8.0 | 0.00 | 0.00 | 0.00 | 59 | 1010.1 |
| 20260510160030 | 14 | 5 | 4.8 | 9.7 | 0.00 | 0.00 | 0.00 | 55 | 1010.3 |
| 20260510154519 | 15 | 22 | 4.8 | 9.7 | 0.00 | 0.00 | 0.00 | 52 | 1010.4 |
| 20260510153029 | 15 | 331 | 4.8 | 14.5 | 0.00 | 0.00 | 0.00 | 48 | 1010.5 |
| 20260510151520 | 15 | 35 | 3.2 | 14.5 | 0.00 | 0.00 | 0.00 | 48 | 1010.6 |
| 20260510150016 | 16 | 355 | 6.4 | 17.7 | 0.00 | 0.00 | 0.00 | 50 | 1010.7 |
| 20260510144513 | 15 | 350 | 6.4 | 19.3 | 0.00 | 0.00 | 0.00 | 52 | 1010.9 |
| 20260510143012 | 16 | 37 | 6.4 | 17.7 | 0.00 | 0.00 | 0.00 | 60 | 1011.1 |
| 20260510141509 | 15 | 331 | 6.4 | 19.3 | 0.00 | 0.00 | 0.00 | 65 | 1011.0 |
| 20260510140008 | 15 | 39 | 4.8 | 8.0 | 0.00 | 0.00 | 0.00 | 68 | 1011.1 |
| 20260510134506 | 15 | 11 | 1.6 | 6.4 | 0.00 | 0.00 | 0.00 | 69 | 1011.2 |
| 20260510133005 | 15 | 342 | 1.6 | 14.5 | 0.00 | 0.00 | 0.00 | 69 | 1011.3 |
| 20260510131503 | 15 | 9 | 4.8 | 11.3 | 0.00 | 0.00 | 0.00 | 68 | 1011.4 |
| 20260510130100 | 13 | 355 | 1.6 | 8.0 | 0.00 | 0.00 | 0.00 | 69 | 1011.8 |
| 20260510124602 | 13 | 339 | 1.6 | 6.4 | 0.00 | 0.00 | 0.00 | 70 | 1011.9 |
| 20260510123057 | 13 | 338 | 4.8 | 14.5 | 0.00 | 0.00 | 0.00 | 69 | 1012.2 |
| 20260510121558 | 13 | 346 | 3.2 | 20.9 | 0.00 | 0.00 | 0.00 | 68 | 1012.1 |
| 20260510120056 | 15 | 250 | 3.2 | 9.7 | 0.00 | 0.00 | 0.00 | 61 | 1012.0 |
| 20260510114620 | 15 | 167 | 3.2 | 12.9 | 0.00 | 0.00 | 0.00 | 58 | 1012.0 |
| 20260510113058 | 16 | 82 | 1.6 | 4.8 | 0.00 | 0.00 | 0.00 | 58 | 1012.2 |
| 20260510111551 | 16 | 240 | 1.6 | 11.3 | 0.00 | 0.00 | 0.00 | 57 | 1012.6 |
| 20260510110054 | 16 | 267 | 0.0 | 12.9 | 0.00 | 0.00 | 0.00 | 59 | 1012.7 |
| 20260510104547 | 15 | 313 | 3.2 | 8.0 | 0.00 | 0.00 | 0.00 | 62 | 1012.8 |
| 20260510103045 | 14 | 230 | 3.2 | 8.0 | 0.00 | 0.00 | 0.00 | 68 | 1012.9 |
| 20260510101536 | 14 | 288 | 0.0 | 4.8 | 0.00 | 0.00 | 0.00 | 70 | 1013.1 |
| 20260510100045 | 13 | 229 | 1.6 | 4.8 | 0.00 | 0.00 | 0.00 | 73 | 1013.4 |
| 20260510094537 | 12 | 212 | 0.0 | 4.8 | 0.00 | 0.00 | 0.00 | 77 | 1013.5 |
| 20260510093025 | 11 | 205 | 1.6 | 4.8 | 0.00 | 0.00 | 0.00 | 79 | 1013.9 |
| 20260510091519 | 11 | 210 | 0.0 | 4.8 | 0.00 | 0.00 | 0.00 | 80 | 1014.0 |
| 20260510090014 | 10 | 215 | 0.0 | 4.8 | 0.00 | 0.00 | 0.00 | 80 | 1014.2 |
| 20260510084512 | 10 | 215 | 1.6 | 4.8 | 0.00 | 0.00 | 0.00 | 81 | 1014.2 |
| 20260510083009 | 10 | 215 | 0.0 | 6.4 | 0.00 | 0.00 | 0.00 | 81 | 1014.4 |
| 20260510081509 | 10 | 190 | 3.2 | 6.4 | 0.00 | 0.00 | 0.00 | 81 | 1014.3 |
| 20260510080018 | 10 | 192 | 1.6 | 6.4 | 0.00 | 0.00 | 0.00 | 81 | 1014.3 |
| 20260510074505 | 10 | 182 | 3.2 | 6.4 | 0.00 | 0.00 | 0.00 | 80 | 1014.4 |
| 20260510073001 | 9 | 196 | 1.6 | 4.8 | 0.00 | 0.00 | 0.00 | 80 | 1014.4 |
| 20260510071559 | 9 | 271 | 0.0 | 3.2 | 0.00 | 0.00 | 0.00 | 80 | 1014.6 |
| 20260510070110 | 9 | 271 | 0.0 | 4.8 | 0.00 | 0.00 | 0.00 | 80 | 1014.5 |
| 20260510064556 | 9 | 159 | 0.0 | 0.0 | 0.00 | 0.00 | 0.00 | 80 | 1014.5 |
| 20260510063053 | 8 | 159 | 0.0 | 3.2 | 0.00 | 0.00 | 0.00 | 80 | 1014.5 |
| 20260510061550 | 8 | 165 | 1.6 | 4.8 | 0.00 | 0.00 | 0.00 | 81 | 1014.6 |
| 20260510060049 | 8 | 142 | 3.2 | 6.4 | 0.00 | 0.00 | 0.00 | 81 | 1014.7 |
| 20260510054546 | 8 | 121 | 0.0 | 3.2 | 0.00 | 0.00 | 0.00 | 81 | 1014.8 |
| 20260510053051 | 8 | 129 | 0.0 | 3.2 | 0.00 | 0.00 | 0.00 | 81 | 1014.9 |
| 20260510051546 | 8 | 105 | 0.0 | 3.2 | 0.00 | 0.00 | 0.00 | 81 | 1015.1 |
| 20260510050039 | 8 | 104 | 0.0 | 0.0 | 0.00 | 0.00 | 0.00 | 82 | 1015.2 |
| 20260510044537 | 8 | 104 | 0.0 | 0.0 | 0.00 | 0.00 | 0.00 | 81 | 1015.5 |
| 20260510043035 | 7 | 104 | 0.0 | 1.6 | 0.00 | 0.00 | 0.00 | 81 | 1015.6 |
| 20260510041533 | 7 | 104 | 0.0 | 0.0 | 0.00 | 0.00 | 0.00 | 82 | 1015.7 |
| 20260510040031 | 7 | 104 | 0.0 | 0.0 | 0.00 | 0.00 | 0.00 | 82 | 1015.9 |
| 20260510034528 | 7 | 104 | 0.0 | 0.0 | 0.00 | 0.00 | 0.00 | 80 | 1016.1 |
| 20260510033031 | 7 | 104 | 0.0 | 0.0 | 0.00 | 0.00 | 0.00 | 80 | 1016.0 |
| 20260510031527 | 7 | 104 | 0.0 | 0.0 | 0.00 | 0.00 | 0.00 | 80 | 1016.1 |
| 20260510030023 | 7 | 104 | 0.0 | 0.0 | 0.00 | 0.00 | 0.00 | 80 | 1016.1 |
| 20260510024523 | 7 | 104 | 0.0 | 0.0 | 0.00 | 0.00 | 0.00 | 80 | 1016.2 |
| 20260510023021 | 7 | 104 | 0.0 | 0.0 | 0.00 | 0.00 | 0.00 | 81 | 1016.4 |
| 20260510021546 | 7 | 104 | 0.0 | 0.0 | 0.00 | 0.00 | 0.00 | 81 | 1016.6 |
| 20260510020017 | 7 | 104 | 0.0 | 0.0 | 0.00 | 0.00 | 0.00 | 80 | 1016.8 |
| 20260510014530 | 7 | 104 | 0.0 | 1.6 | 0.00 | 0.00 | 0.00 | 80 | 1016.8 |
| 20260510013013 | 7 | 104 | 0.0 | 3.2 | 0.00 | 0.00 | 0.00 | 80 | 1016.9 |
| 20260510011516 | 7 | 104 | 1.6 | 4.8 | 0.00 | 0.00 | 0.00 | 81 | 1016.9 |
| 20260510010020 | 6 | 160 | 1.6 | 3.2 | 0.00 | 0.00 | 0.00 | 83 | 1017.2 |
| 20260510004506 | 6 | 179 | 0.0 | 0.0 | 0.00 | 0.00 | 0.00 | 85 | 1017.5 |
| 20260510003003 | 6 | 179 | 0.0 | 0.0 | 0.00 | 0.00 | 0.00 | 86 | 1017.9 |
| 20260510001609 | 5 | 179 | 0.0 | 0.0 | 0.00 | 0.00 | 0.00 | 86 | 1018.2 |
| 20260510000058 | 5 | 179 | 0.0 | 0.0 | 0.00 | 0.00 | 0.00 | 86 | 1018.3 |
| 20260509234555 | 5 | 179 | 0.0 | 0.0 | 0.00 | 0.00 | 0.00 | 85 | 1018.5 |
| 20260509233054 | 5 | 179 | 0.0 | 0.0 | 0.00 | 0.00 | 0.00 | 84 | 1018.7 |
| 20260509231552 | 4 | 179 | 0.0 | 0.0 | 0.00 | 0.00 | 0.00 | 86 | 1018.8 |
| 20260509230050 | 3 | 179 | 0.0 | 0.0 | 0.00 | 0.00 | 0.00 | 86 | 1018.9 |
| 20260509224545 | 3 | 179 | 0.0 | 0.0 | 0.00 | 0.00 | 0.00 | 85 | 1019.2 |
| 20260509223044 | 3 | 179 | 0.0 | 0.0 | 0.00 | 0.00 | 0.00 | 84 | 1019.3 |
| 20260509221542 | 3 | 179 | 0.0 | 0.0 | 0.00 | 0.00 | 0.00 | 83 | 1019.3 |
| 20260509220039 | 3 | 179 | 0.0 | 0.0 | 0.00 | 0.00 | 0.00 | 83 | 1019.4 |
| 20260509214542 | 3 | 179 | 0.0 | 0.0 | 0.00 | 0.00 | 0.00 | 82 | 1019.5 |
| 20260509213038 | 4 | 179 | 0.0 | 0.0 | 0.00 | 0.00 | 0.00 | 81 | 1019.5 |
| 20260509211538 | 4 | 179 | 0.0 | 0.0 | 0.00 | 0.00 | 0.00 | 78 | 1019.5 |
| 20260509210044 | 5 | 179 | 0.0 | 0.0 | 0.00 | 0.00 | 0.00 | 76 | 1019.7 |
| 20260509204538 | 6 | 179 | 0.0 | 0.0 | 0.00 | 0.00 | 0.00 | 73 | 1019.7 |
| 20260509203036 | 6 | 179 | 0.0 | 0.0 | 0.00 | 0.00 | 0.00 | 70 | 1019.8 |
| 20260509201539 | 7 | 179 | 0.0 | 0.0 | 0.00 | 0.00 | 0.00 | 69 | 1019.7 |
| 20260509200039 | 8 | 179 | 0.0 | 0.0 | 0.00 | 0.00 | 0.00 | 67 | 1019.8 |
| 20260509194550 | 9 | 179 | 0.0 | 0.0 | 0.00 | 0.00 | 0.00 | 65 | 1019.8 |
| 20260509193035 | 9 | 179 | 0.0 | 1.6 | 0.00 | 0.00 | 0.00 | 63 | 1019.8 |
| 20260509191534 | 10 | 179 | 1.6 | 4.8 | 0.00 | 0.00 | 0.00 | 63 | 1019.7 |
| 20260509190036 | 10 | 143 | 1.6 | 4.8 | 0.00 | 0.00 | 0.00 | 62 | 1019.5 |
| 20260509184535 | 11 | 128 | 1.6 | 6.4 | 0.00 | 0.00 | 0.00 | 59 | 1019.4 |
| 20260509183035 | 11 | 175 | 1.6 | 11.3 | 0.00 | 0.00 | 0.00 | 55 | 1019.5 |
| 20260509181532 | 12 | 156 | 4.8 | 14.5 | 0.00 | 0.00 | 0.00 | 50 | 1019.5 |